KNCWAYNE6 Weather Reports


Display with metric or nautical units.
time (UTC)temp
F
wind
direction
speed
MPH
gust
MPH
rain 1hr
in
rain 24hr
in
rain mn
in
humidity
%
barometer
mb
20260503213025 66 175 3.0 9.0 0.00 0.00 0.00 16 1018.3
20260503211525 67 186 2.0 5.0 0.00 0.00 0.00 15 1018.3
20260503210028 66 126 4.0 13.0 0.00 0.00 0.00 15 1018.5
20260503204526 66 322 2.0 16.0 0.00 0.00 0.00 15 1018.7
20260503203024 67 185 2.0 10.0 0.00 0.00 0.00 18 1018.8
20260503201526 66 103 3.0 8.0 0.00 0.00 0.00 17 1018.8
20260503200028 66 128 3.0 13.0 0.00 0.00 0.00 18 1019.1
20260503194527 66 189 4.0 11.0 0.00 0.00 0.00 17 1019.4
20260503193032 66 326 4.0 13.0 0.00 0.00 0.00 17 1019.6
20260503191525 65 38 2.0 10.0 0.00 0.00 0.00 19 1019.6
20260503190028 64 335 6.0 14.0 0.00 0.00 0.00 19 1019.8
20260503184536 65 297 2.0 10.0 0.00 0.00 0.00 24 1020.0
20260503183026 63 322 2.0 8.0 0.00 0.00 0.00 26 1019.9
20260503181522 62 150 1.0 6.0 0.00 0.00 0.00 27 1020.1
20260503180018 61 101 5.0 8.0 0.00 0.00 0.00 27 1020.4
20260503174512 62 105 0.0 6.0 0.00 0.00 0.00 29 1020.5
20260503173016 61 347 4.0 9.0 0.00 0.00 0.00 26 1020.7
20260503171521 62 196 2.0 9.0 0.00 0.00 0.00 26 1021.0
20260503081518 34 84 0.0 0.0 0.00 0.00 0.00 63 1019.7
20260503071514 35 84 0.0 0.0 0.00 0.00 0.00 66 1019.3
20260503054526 38 84 0.0 0.0 0.00 0.00 0.00 65 1019.2
20260503053032 38 84 0.0 0.0 0.00 0.00 0.00 65 1019.3
20260503051524 38 84 0.0 0.0 0.00 0.00 0.00 65 1019.3
20260503050014 38 84 0.0 0.0 0.00 0.00 0.00 64 1019.3
20260503044519 38 84 0.0 0.0 0.00 0.00 0.00 64 1019.2
20260503043022 38 84 0.0 0.0 0.00 0.00 0.00 62 1019.2
20260503041525 38 84 0.0 0.0 0.00 0.00 0.00 62 1019.0
20260503040034 39 96 0.0 3.0 0.00 0.00 0.00 62 1019.0
20260503034532 39 96 0.0 0.0 0.00 0.00 0.00 60 1019.0
20260503033020 40 96 0.0 0.0 0.00 0.00 0.00 59 1019.0
20260503031522 40 96 0.0 0.0 0.00 0.00 0.00 58 1018.7
20260503030009 41 96 0.0 0.0 0.00 0.00 0.00 57 1018.7
20260503024507 41 96 0.0 0.0 0.00 0.00 0.00 55 1018.7
20260503023004 42 96 0.0 0.0 0.00 0.00 0.00 54 1018.4
20260503021507 43 96 0.0 0.0 0.00 0.00 0.00 52 1018.2
20260503020005 44 96 0.0 0.0 0.00 0.00 0.00 51 1018.0
20260503014505 45 96 0.0 0.0 0.00 0.00 0.00 48 1017.9
20260503013009 46 96 0.0 0.0 0.00 0.00 0.00 46 1017.7
20260503011508 48 96 0.0 0.0 0.00 0.00 0.00 44 1017.6
20260503010008 49 96 0.0 0.0 0.00 0.00 0.00 40 1017.4
20260503004504 50 96 0.0 2.0 0.00 0.00 0.00 37 1017.3
20260503003009 51 17 0.0 3.0 0.00 0.00 0.00 35 1017.0
20260503001509 51 324 0.0 3.0 0.00 0.00 0.00 33 1016.7
20260503000008 51 305 3.0 11.0 0.00 0.00 0.00 32 1016.6
20260502234507 52 344 1.0 6.0 0.00 0.00 0.00 32 1016.4
20260502233005 53 290 0.0 7.0 0.00 0.00 0.00 30 1016.3
20260502231515 53 351 4.0 9.0 0.00 0.00 0.00 28 1016.1
20260502230009 54 274 3.0 13.0 0.00 0.00 0.00 27 1015.8
20260502224509 55 225 6.0 19.0 0.00 0.00 0.00 26 1015.7
20260502223012 56 19 6.0 14.0 0.00 0.00 0.00 24 1015.7
20260502221504 55 338 5.0 15.0 0.00 0.00 0.00 26 1015.5
20260502220011 54 329 4.0 9.0 0.00 0.00 0.00 28 1015.4
20260502214510 54 171 1.0 9.0 0.00 0.00 0.00 29 1015.2